Simultaneous Nadir Overpasses (SNOs) Predictions

Prediction of SNOs between NOAA-19 and TERRA Satellite Orbit:

Table of predicted SNOs for the next 14.0 days since TLE Epoch: 12/31/2021
Index Date (NOAA-19) Time (NOAA-19) Lat,Lon (NOAA-19) SZA (NOAA-19 ) Date (TERRA) Time (TERRA) Lat,Lon (TERRA) SZA (TERRA ) Distance(km) Time Diff (sec)
1 01/01/2022 09:02:30 -80.59,-100.35 74.92 01/01/2022 09:03:06 -80.59,-100.45 74.91 1.74 36
2 01/01/2022 09:53:27 80.58, 67.11 105.10 01/01/2022 09:52:32 80.60, 67.24 105.10 3.06 55
3 01/03/2022 14:35:34 80.63, -4.53 104.82 01/03/2022 14:36:47 80.56, -4.23 104.81 9.43 73
4 01/03/2022 15:26:33 -80.58, 163.80 75.14 01/03/2022 15:26:13 -80.58, 163.68 75.15 2.10 20
5 01/05/2022 20:59:35 80.59, -99.52 104.60 01/05/2022 20:59:52 80.60, -99.52 104.62 1.69 17
6 01/05/2022 21:50:26 -80.42, 71.37 75.21 01/05/2022 21:49:22 -80.51, 67.14 75.55 78.57 64
7 01/08/2022 02:32:40 -80.60, -2.88 75.70 01/08/2022 02:33:32 -80.62, -2.79 75.66 3.07 52
8 01/08/2022 03:23:39 80.60, 164.41 104.30 01/08/2022 03:22:59 80.59, 164.52 104.29 2.03 40
9 01/10/2022 08:56:43 -80.60, -98.82 76.04 01/10/2022 08:56:39 -80.60, -98.77 76.03 0.99 4
10 01/12/2022 14:29:46 80.60, -2.00 103.61 01/12/2022 14:30:18 80.61, -2.14 103.61 2.84 32



Historial Predications of SNOs between NOAA-19 and TERRA
